Location: Asheville, NC
(35.6000°N, 82.5500°W)
Time: 02:57:33
(UTC-05:00)

UWE-3 - Visible Passes

Search period start: 22 January 2018 00:00
Search period end: 01 February 2018 00:00
Orbit: 587 x 683 km, 97.6° (Epoch: 21 January)

Date Brightness Start Highest point End Pass type
(mag) Time Alt. Az. Time Alt. Az. Time Alt. Az.
22 Jan ? 18:14:55 10° E 18:17:14 14° ENE 18:19:36 10° NE visible
22 Jan ? 19:48:57 10° S 19:53:11 48° W 19:57:35 10° NNW visible
23 Jan ? 18:35:24 10° ESE 18:38:57 24° ENE 18:42:36 10° NNE visible
23 Jan ? 20:11:31 10° SSW 20:15:14 27° W 20:19:05 10° NW visible
24 Jan ? 18:56:35 10° SE 19:00:45 41° ENE 19:05:03 10° N visible
24 Jan ? 20:34:46 10° SW 20:37:23 15° W 20:40:02 10° NW visible
25 Jan ? 06:51:28 10° ENE 06:52:50 11° E 06:54:10 10° ESE visible
25 Jan ? 19:18:12 10° SSE 19:22:38 76° ENE 19:27:13 10° N visible
26 Jan ? 19:40:11 10° S 19:44:34 60° W 19:49:07 10° NNW visible
27 Jan ? 18:27:09 10° ESE 18:30:26 20° ENE 18:33:48 10° NNE visible
27 Jan ? 20:02:34 10° SSW 20:06:36 33° W 20:10:45 10° NNW visible
28 Jan ? 18:48:09 10° SE 18:52:13 34° ENE 18:56:23 10° N visible
28 Jan ? 20:25:31 10° SW 20:28:42 19° W 20:31:58 10° NW visible
29 Jan ? 19:09:37 10° SSE 19:14:04 61° ENE 19:18:38 10° N visible
29 Jan ? 20:50:02 10° W 20:50:53 10° W 20:51:44 10° W visible
30 Jan ? 19:31:29 10° S 19:35:59 75° WSW 19:40:37 10° NNW visible
31 Jan ? 18:19:01 10° ESE 18:21:56 17° ENE 18:24:54 10° NNE visible
31 Jan ? 19:53:43 10° SSW 19:57:59 41° W 20:02:22 10° NNW visible
